User: anonymous   Login
Location: Unspecified
(0.0000°N, 0.0000°E)
Time: 20:09:53
(UTC+00:00)
Language:

AO-85 - Orbit

View from above orbital plane
View from above orbital plane
View from above satellite
View from above satellite

Ground track
Ground track

The orbit data is extracted from the following two-line orbital elements,

1 40967U 15058D   18109.10603829  .00000272  00000-0  47156-4 0 03007
2 40967 064.7799 010.6263 0201470 332.0190 027.0199 14.75690527044934
Epoch (UTC): 19 April 2018 02:32:41
Eccentricity: 0.0201470
inclination: 64.7799°
perigee height: 501 km
apogee height: 784 km
right ascension of ascending node: 10.6263°
argument of perigee: 332.0190°
revolutions per day: 14.75690527
mean anomaly at epoch: 27.0199°
orbit number at epoch: 4493

The dashed part of the orbit path shows where the satellite is in the earth's shadow,  

DLR